Change the Weather History Date:

Thursday, August 22, 2013

  Actual Average Record
Temperature  
Mean Temperature 73 °F -  
Max Temperature 78 °F 75 °F 90 °F (1976)
Min Temperature 69 °F 58 °F 45 °F (2004)
Cooling Degree Days 8    
Growing Degree Days 23 (Base 50)    
Moisture  
Dew Point 69 °F    
Average Humidity 90    
Maximum Humidity 100    
Minimum Humidity 76    
Precipitation  
Precipitation 0.01 in - - ()
Sea Level Pressure  
Sea Level Pressure 30.00 in    
Wind  
Wind Speed 8 mph (SW)    
Max Wind Speed 14 mph    
Max Gust Speed 21 mph    
Visibility 7 miles    
Events      
Averages and records for this station are not official NWS values.
T = Trace of Precipitation, MM = Missing Value Source: NWS Daily Summary

Daily Weather History Graph

Daily Weather History Graph

Search for Another Location

Airport or City:

Trip Planner

Search our weather history database for the weather conditions in past years. The results will help you decide how hot, cold, wet, or windy it might be!

Date:

Astronomy

Aug. 22, 2013 Rise Set
Actual Time 5:58 AM EDT 7:30 PM EDT
Civil Twilight 5:29 AM EDT 8:00 PM EDT
Nautical Twilight 4:54 AM EDT 8:35 PM EDT
Astronomical Twilight 4:17 AM EDT 9:12 PM EDT
Moon 8:10 PM EDT (8/22) 7:45 AM EDT (8/22)
Length of Visible Light 14h 30m
Length of Day
13h 32m
Waning Gibbous, 97% of the Moon is Illuminated
Aug 22
Waning Gibbous
Aug 28
Last Quarter
Sep 5
New
Sep 12
First Quarter
Sep 19
Full

Hourly Weather History & Observations

Time (EDT) Temp. Dew Point Humidity Pressure Visibility Wind Dir Wind Speed Gust Speed Precip Events Conditions
12:50 AM 71.6 °F 69.8 °F 94% 30.07 in 6.0 mi WSW 6.9 mph - N/A   Partly Cloudy
12:53 AM 71.1 °F 69.1 °F 93% 30.06 in 6.0 mi WSW 9.2 mph - N/A   Scattered Clouds
1:07 AM 71.6 °F 69.8 °F 94% 30.06 in 6.0 mi WSW 8.1 mph - N/A   Mostly Cloudy
1:53 AM 72.0 °F 69.1 °F 91% 30.06 in 7.0 mi WSW 5.8 mph - N/A   Overcast
2:53 AM 71.1 °F 69.1 °F 93% 30.07 in 7.0 mi WSW 4.6 mph - N/A   Mostly Cloudy
3:12 AM 71.6 °F 68.0 °F 88% 30.07 in 8.0 mi WSW 5.8 mph - N/A   Scattered Clouds
3:53 AM 71.1 °F 68.0 °F 90% 30.06 in 8.0 mi WSW 5.8 mph - N/A   Scattered Clouds
4:03 AM 69.8 °F 68.0 °F 94% 30.06 in 7.0 mi WSW 4.6 mph - 0.01 in   Mostly Cloudy
4:11 AM 69.8 °F 68.0 °F 94% 30.06 in 7.0 mi WSW 5.8 mph - 0.01 in   Scattered Clouds
4:18 AM 69.8 °F 68.0 °F 94% 30.06 in 7.0 mi WSW 4.6 mph - 0.01 in   Mostly Cloudy
4:53 AM 70.0 °F 68.0 °F 93% 30.05 in 7.0 mi WSW 5.8 mph - 0.01 in   Overcast
5:53 AM 70.0 °F 69.1 °F 97% 30.04 in 5.0 mi SW 6.9 mph - N/A   Overcast
6:00 AM 69.8 °F 69.8 °F 100% 30.04 in 4.0 mi SW 6.9 mph - N/A   Overcast
6:19 AM 69.8 °F 69.8 °F 100% 30.04 in 2.5 mi SW 6.9 mph - N/A   Overcast
6:37 AM 69.8 °F 69.8 °F 100% 30.04 in 0.8 mi SW 6.9 mph - N/A   Overcast
6:53 AM 70.0 °F 69.1 °F 97% 30.04 in 0.8 mi SW 8.1 mph - N/A   Overcast
7:00 AM 71.6 °F 69.8 °F 94% 30.04 in 2.5 mi SW 6.9 mph - N/A   Overcast
7:18 AM 71.6 °F 69.8 °F 94% 30.04 in 3.0 mi SW 10.4 mph - N/A   Overcast
7:53 AM 71.1 °F 69.1 °F 93% 30.03 in 4.0 mi SW 6.9 mph - N/A   Overcast
8:33 AM 71.6 °F 69.8 °F 94% 30.03 in 6.0 mi SW 9.2 mph - N/A   Overcast
8:53 AM 73.0 °F 70.0 °F 90% 30.03 in 7.0 mi SW 13.8 mph 17.3 mph N/A   Overcast
9:45 AM 75.2 °F 69.8 °F 83% 30.02 in 10.0 mi SW 9.2 mph 19.6 mph N/A   Scattered Clouds
9:53 AM 75.9 °F 70.0 °F 82% 30.02 in 10.0 mi SW 11.5 mph - N/A   Mostly Cloudy
10:00 AM 75.2 °F 69.8 °F 83% 30.03 in 10.0 mi SW 8.1 mph - N/A   Scattered Clouds
10:53 AM 77.0 °F 70.0 °F 79% 30.01 in 10.0 mi SSW 12.7 mph - N/A   Clear
11:02 AM 75.2 °F 69.8 °F 83% 30.02 in 10.0 mi SSW 10.4 mph - N/A   Scattered Clouds
11:53 AM 77.0 °F 69.1 °F 76% 30.01 in 10.0 mi SW 11.5 mph 20.7 mph N/A   Partly Cloudy
12:53 PM 77.0 °F 69.1 °F 76% 30.00 in 10.0 mi SW 9.2 mph 18.4 mph N/A   Partly Cloudy
1:41 PM 75.2 °F 69.8 °F 83% 30.00 in 10.0 mi West 11.5 mph 18.4 mph N/A   Mostly Cloudy
1:53 PM 75.9 °F 69.1 °F 79% 29.99 in 10.0 mi West 10.4 mph 17.3 mph N/A   Scattered Clouds
2:53 PM 77.0 °F 69.1 °F 76% 29.96 in 10.0 mi WSW 6.9 mph - N/A   Partly Cloudy
3:53 PM 73.9 °F 66.9 °F 79% 29.95 in 10.0 mi SSW 10.4 mph - N/A   Mostly Cloudy
4:53 PM 73.0 °F 69.1 °F 87% 29.93 in 10.0 mi SSW 12.7 mph - N/A   Mostly Cloudy
5:20 PM 71.6 °F 69.8 °F 94% 29.91 in 5.0 mi SSW 11.5 mph - N/A   Overcast
5:53 PM 72.0 °F 70.0 °F 93% 29.90 in 5.0 mi SSW 11.5 mph - N/A   Overcast
6:53 PM 72.0 °F 70.0 °F 93% 29.90 in 7.0 mi SW 12.7 mph - N/A   Overcast
7:53 PM 72.0 °F 69.1 °F 91% 29.91 in 9.0 mi SW 8.1 mph - N/A   Overcast
8:18 PM 71.6 °F 69.8 °F 94% 29.91 in 1.8 mi SW 12.7 mph - N/A   Overcast
8:28 PM 71.6 °F 69.8 °F 94% 29.92 in 3.0 mi SW 8.1 mph - N/A   Overcast
8:53 PM 72.0 °F 70.0 °F 93% 29.91 in 7.0 mi SW 10.4 mph - N/A   Overcast
9:53 PM 72.0 °F 70.0 °F 93% 29.90 in 9.0 mi SW 8.1 mph - N/A   Overcast
10:53 PM 71.1 °F 69.1 °F 93% 29.89 in 9.0 mi SW 10.4 mph 19.6 mph N/A   Overcast
11:20 PM 71.6 °F 69.8 °F 94% 29.89 in 10.0 mi WSW 9.2 mph - N/A   Overcast
11:53 PM 71.1 °F 69.1 °F 93% 29.87 in 10.0 mi SW 9.2 mph - N/A   Overcast